Home   Weather   Odense   Past weeks

Flag for Denmark Past Weather in Odense, Denmark — Yesterday and Last 2 Weeks

Now
36 °F

Fog.


Feels Like: 28 °F
Forecast: 39 / 44 °F
Wind: 10 mph from Southwest

Location: Soenderborg Lufthavn

Current Time: Jan 19, 2017 at 3:21:44 am

Latest Report: Jan 19, 2017 at 2:50 am


Visibility: 1 mi

Pressure: 30.60 "Hg

Humidity: 100%

Dew Point: 36 °F

Location of OdenseLocation

Past Weather in Odense — Graph

°F

Odense Temperature Yesterday

Maximum temperature yesterday: 36 °F (at 4:50 am)
Minimum temperature yesterday: 34 °F (at 12:20 am)
Average temperature yesterday: 35 °F

High & Low Weather Summary for the Past Weeks

 TemperatureHumidityPressure
High45 °F (Jan 11, 12:21 pm)100% (Jan 7, 1:20 pm)30.74 "Hg (Jan 7, 1:20 pm)
Low19 °F (Jan 6, 7:20 am)47% (Jan 6, 12:20 pm)29.15 "Hg (Jan 13, 4:20 am)
Average35 °F81%30.03 "Hg
* Reported Jan 4 2:20 am — Jan 19 2:20 am, Odense, Weather by CustomWeather, © 2017

Note: Actual official high and low records may vary slightly from our data, if they occured in-between our weather recording intervals... More about our weather records

Advertising

Odense Weather History for the Previous 24 Hours

Scroll right to see more
 ConditionsComfort  
Time TempWeatherWind HumidityBarometerVisibility
2:20 am
Thu, Jan 19
36 °FFog.9 mph100%30.60 "Hg1 mi
1:50 am36 °FFog.9 mph100%30.60 "Hg1 mi
1:20 am36 °FFog.10 mph100%30.60 "Hg1 mi
12:50 am36 °FFog.9 mph93%30.60 "Hg1 mi
12:20 am36 °FFog.9 mph93%30.60 "Hg1 mi
11:50 pm
Wed, Jan 18
36 °FFog.8 mph93%30.60 "Hg2 mi
11:20 pm36 °FLow clouds.8 mph93%30.60 "Hg3 mi
10:50 pm36 °FLow clouds.8 mph93%30.60 "Hg3 mi
10:20 pm36 °FLow clouds.9 mph93%30.60 "Hg4 mi
9:50 pm36 °FPassing clouds.10 mph93%30.60 "Hg4 mi
9:20 pm36 °FLow clouds.9 mph87%30.60 "Hg5 mi
8:50 pm36 °FOvercast.10 mph87%30.60 "Hg6 mi
8:20 pm36 °FOvercast.9 mph87%30.60 "HgN/A
7:50 pm36 °FOvercast.9 mph87%30.60 "HgN/A
7:20 pm36 °FOvercast.10 mph87%30.60 "HgN/A
6:50 pm36 °FOvercast.8 mph87%30.60 "HgN/A
6:20 pm36 °FOvercast.9 mph87%30.63 "HgN/A
5:50 pm36 °FPassing clouds.9 mph87%30.63 "HgN/A
5:20 pm36 °FPassing clouds.9 mph81%30.63 "HgN/A
4:50 pm36 °FPartly cloudy.9 mph81%30.63 "HgN/A
4:20 pm36 °FPartly sunny.9 mph81%30.63 "HgN/A
3:50 pm36 °FPartly sunny.10 mph81%30.63 "HgN/A
2:50 pm36 °FPartly sunny.12 mph81%30.63 "HgN/A
2:20 pm36 °FPartly sunny.10 mph81%30.63 "HgN/A
1:50 pm36 °FPartly sunny.14 mph81%30.63 "HgN/A
1:20 pm36 °FPartly sunny.13 mph81%30.63 "HgN/A
12:50 pm36 °FPartly sunny.12 mph81%30.63 "HgN/A
12:20 pm36 °FPartly sunny.12 mph81%30.63 "HgN/A
11:50 am36 °FPartly sunny.9 mph81%30.66 "HgN/A
11:20 am36 °FPartly sunny.8 mph81%30.66 "HgN/A
10:50 am36 °FPartly sunny.8 mph81%30.66 "HgN/A
10:20 am36 °FPartly sunny.10 mph81%30.63 "HgN/A
9:50 am36 °FPartly sunny.6 mph75%30.66 "HgN/A
9:21 am36 °FPartly sunny.8 mph75%30.63 "HgN/A
8:20 am36 °FPassing clouds.8 mph70%30.63 "HgN/A
7:50 am36 °FClear.8 mph75%30.63 "Hg10 mi
7:20 am36 °FPassing clouds.8 mph75%30.63 "HgN/A
6:52 am36 °FPassing clouds.9 mph75%30.63 "HgN/A
6:20 am36 °FPassing clouds.9 mph70%30.60 "HgN/A
5:50 am36 °FPartly cloudy.8 mph75%30.63 "HgN/A
5:20 am36 °FOvercast.7 mph75%30.63 "HgN/A
4:50 am36 °FPassing clouds.6 mph81%30.63 "HgN/A
4:20 am34 °FPassing clouds.6 mph87%30.63 "HgN/A
3:50 am34 °FOvercast.6 mph81%30.63 "HgN/A
3:20 am34 °FOvercast.6 mph81%30.63 "HgN/A
Weather by CustomWeather, © 2017

See weather overviewHow to use our weather pages